Location: Camaret
(48.2753°N, 4.5961°W)
Time: 01:29:18
(UTC+00:00)

Cosmos 1455 - Pass Details

Date: 29 October 2020
Orbit: 499 x 521 km, 82.5° (Epoch: 26 November)

Event Time Altitude Azimuth Distance (km) Brightness Sun altitude
Rises 19:27:18 0° 207° (SSW) 2,601 6.0 -24.4°
Reaches altitude 10° 19:29:31 10° 216° (SW) 1,725 5.2 -24.8°
Maximum altitude 19:33:03 38° 285° (WNW) 802 3.6 -25.3°
Drops below altitude 10° 19:36:40 10° 355° (N) 1,752 5.0 -25.9°
Sets 19:38:55 0° 3° (N) 2,648 5.9 -26.3°
